Location: skyray
(25.0337°N, 121.3738°E)
Time: 12:47:08
(UTC+08:00)

ISS - Visible Passes

Search period start: 26 May 2020 00:00
Search period end: 05 June 2020 00:00
Orbit: 417 x 420 km, 51.6° (Epoch: 26 May)

Date Brightness Start Highest point End Pass type
(mag) Time Alt. Az. Time Alt. Az. Time Alt. Az.
01 Jun -0.2 21:32:15 10° NNW 21:32:16 10° NNW 21:32:16 10° NNW visible
02 Jun -1.1 20:45:02 10° N 20:46:13 15° NNE 20:46:13 15° NNE visible
03 Jun -0.3 21:33:00 10° NW 21:33:09 11° NW 21:33:09 11° NW visible
04 Jun -2.2 20:45:07 10° NW 20:47:12 34° NNW 20:47:12 34° NNW visible
